Regional Weather Roundup
Issued by NWS Charleston, WV

Home | Current Version | Previous Version | Text Only | Print | Product List | Glossary Off
Versions: 1 2 3 4 5 6 7 8 9 10 11 12 13 14 15 16 17 18 19 20 21 22 23 24 25 26 27 28 29 30 31 32 33 34 35 36 37 38 39 40 41 42 43 44 45 46 47 48 49 50

000
ASUS41 KRLX 060110
RWRRLX
West Virginia Regional Weather Roundup
National Weather Service Charleston WV
900 PM EDT TUE MAY 05 2015

Note: "fair" indicates few or no clouds below 12,000 feet with no
significant weather and/or obstructions to visibility.

WVZ003-060200-
Northern Panhandle of West Virginia

CITY           SKY/WX    TMP DP  RH WIND       PRES   REMARKS
WHEELING       MOCLDY    71  59  65 N10       30.22R
$$

WVZ009-060200-
Northwest West Virginia

CITY           SKY/WX    TMP DP  RH WIND       PRES   REMARKS
PARKERSBURG    PTCLDY    73  60  63 CALM      30.22R
$$

WVZ006-060200-
Western West Virginia

CITY           SKY/WX    TMP DP  RH WIND       PRES   REMARKS
HUNTINGTON     CLEAR     73  54  51 CALM      30.19R
$$

WVZ015-060200-
West Central West Virginia

CITY           SKY/WX    TMP DP  RH WIND       PRES   REMARKS
CHARLESTON     PTCLDY    73  56  54 CALM      30.20R
$$

WVZ022-031-060200-
North Central West Virginia

CITY           SKY/WX    TMP DP  RH WIND       PRES   REMARKS
CLARKSBURG     PTCLDY    70  57  63 CALM      30.22R
MORGANTOWN     PTCLDY    71  58  63 CALM      30.24R
$$

WVZ025-035-042-045-060200-
Southern West Virginia

CITY           SKY/WX    TMP DP  RH WIND       PRES   REMARKS
BECKLEY        MOCLDY    67  50  54 SW5       30.28S
LOGAN            N/A     73  54  49 CALM      30.21R
BLUEFIELD      PTCLDY    71  48  43 N3        30.30S
LEWISBURG      PTCLDY    69  54  57 CALM      30.29R
$$

WVZ047-060200-
Northern Mountains of West Virginia

CITY           SKY/WX    TMP DP  RH WIND       PRES   REMARKS
ELKINS         PTCLDY    60  58  92 CALM      30.27R
$$

WVZ052-060200-
Eastern Panhandle of West Virginia

CITY           SKY/WX    TMP DP  RH WIND       PRES   REMARKS
MARTINSBURG    PTCLDY    68  61  78 S5        30.22R
PETERSBURG     PTCLDY    64  59  85 CALM      30.24R
$$


USA.gov is the U.S. government's official web portal to all federal, state and local government web resources and services.